^^
Your Local Weather - Clay, NY Station Historical Data
Daily Summary for September 29, 2017 Units:  English    Metric   Both
« Previous Day
Next Day »
Daily Weekly Monthly Yearly Custom
  High: Low: Average:
Temperature: 62.2 °F 48.3 °F 53.5 °F
Dew Point: 51.2 °F 41.4 °F 45.3 °F
Humidity: 93% 47% 75%
Wind Speed: 3.0mph 0.0mph 0.5mph
Wind Gust: 6.0mph - -
Wind- - SSW
Pressure: 30.05 in 29.92 in -
Precipitation: 0.13 in    
Historical Graphs
 
 
Tabular Data for September 29, 2017
Time Temperature Dew Point Pressure Wind Wind Speed Wind Gust Humidity Rainfall Rate (Hourly) solar
00:00 53.9 °F 44.3 °F 29.98 in East 3.0 mph 3.0 mph 70% 0.00 in 0 W/m2
00:06 53.7 °F 44.5 °F 29.99 in ENE 2.0 mph 3.0 mph 71% 0.00 in 0 W/m2
00:12 53.5 °F 44.0 °F 29.99 in NNW 2.0 mph 2.0 mph 70% 0.00 in 0 W/m2
00:18 53.3 °F 44.1 °F 29.99 in North 2.0 mph 3.0 mph 71% 0.00 in 0 W/m2
00:24 53.1 °F 43.9 °F 29.99 in NNW 2.0 mph 3.0 mph 71% 0.00 in 0 W/m2
00:30 53.0 °F 43.8 °F 29.99 in North 1.0 mph 2.0 mph 71% 0.00 in 0 W/m2
00:36 52.8 °F 44.0 °F 29.99 in North 1.0 mph 2.0 mph 72% 0.00 in 0 W/m2
00:42 52.7 °F 43.9 °F 29.99 in Calm     72% 0.00 in 0 W/m2
00:48 52.6 °F 44.2 °F 30.00 in Calm     73% 0.00 in 0 W/m2
00:54 52.5 °F 44.1 °F 30.00 in Calm   1.0 mph 73% 0.00 in 0 W/m2
01:00 52.3 °F 44.3 °F 30.00 in Calm     74% 0.00 in 0 W/m2
01:06 52.0 °F 44.0 °F 30.00 in Calm     74% 0.00 in 0 W/m2
01:12 51.7 °F 43.7 °F 30.00 in Calm     74% 0.00 in 0 W/m2
01:18 51.2 °F 43.5 °F 30.00 in Calm     75% 0.00 in 0 W/m2
01:24 50.7 °F 43.8 °F 30.00 in Calm     77% 0.00 in 0 W/m2
01:30 50.1 °F 43.8 °F 30.00 in Calm     79% 0.00 in 0 W/m2
01:36 49.6 °F 43.7 °F 30.00 in Calm     80% 0.00 in 0 W/m2
01:42 49.1 °F 43.8 °F 30.00 in Calm     82% 0.00 in 0 W/m2
01:48 48.8 °F 43.9 °F 30.00 in Calm     83% 0.00 in 0 W/m2
01:54 48.6 °F 43.7 °F 30.00 in Calm     83% 0.00 in 0 W/m2
02:00 48.5 °F 43.6 °F 30.00 in Calm     83% 0.00 in 0 W/m2
02:06 48.7 °F 44.1 °F 30.00 in Calm     84% 0.00 in 0 W/m2
02:12 49.0 °F 44.1 °F 30.00 in Calm     83% 0.00 in 0 W/m2
02:18 49.1 °F 43.8 °F 30.00 in Calm     82% 0.00 in 0 W/m2
02:24 49.4 °F 44.1 °F 30.00 in Calm     82% 0.00 in 0 W/m2
02:30 49.8 °F 44.2 °F 30.00 in Calm     81% 0.00 in 0 W/m2
02:36 50.0 °F 44.1 °F 30.01 in Calm     80% 0.00 in 0 W/m2
02:42 50.1 °F 43.8 °F 30.01 in Calm     79% 0.00 in 0 W/m2
02:48 50.2 °F 43.6 °F 30.01 in Calm     78% 0.00 in 0 W/m2
02:54 50.3 °F 43.4 °F 30.01 in Calm     77% 0.00 in 0 W/m2
03:00 50.3 °F 43.0 °F 30.00 in Calm     76% 0.00 in 0 W/m2
03:06 50.5 °F 43.9 °F 30.00 in Calm     78% 0.00 in 0 W/m2
03:12 50.4 °F 43.8 °F 30.00 in Calm     78% 0.00 in 0 W/m2
03:18 50.3 °F 43.7 °F 30.00 in Calm     78% 0.00 in 0 W/m2
03:24 50.2 °F 44.3 °F 30.00 in Calm     80% 0.00 in 0 W/m2
03:30 50.0 °F 44.1 °F 30.00 in Calm     80% 0.00 in 0 W/m2
03:36 49.8 °F 43.5 °F 30.00 in Calm     79% 0.00 in 0 W/m2
03:42 49.6 °F 44.0 °F 30.00 in Calm     81% 0.00 in 0 W/m2
03:48 49.5 °F 43.9 °F 30.00 in Calm     81% 0.00 in 0 W/m2
03:54 49.3 °F 44.0 °F 30.00 in Calm     82% 0.00 in 0 W/m2
04:00 49.2 °F 43.9 °F 30.00 in Calm     82% 0.00 in 0 W/m2
04:06 48.9 °F 43.6 °F 30.00 in Calm     82% 0.00 in 0 W/m2
04:12 48.8 °F 43.9 °F 30.00 in Calm     83% 0.00 in 0 W/m2
04:18 48.8 °F 43.9 °F 30.00 in Calm     83% 0.00 in 0 W/m2
04:24 48.8 °F 43.9 °F 30.00 in Calm     83% 0.00 in 0 W/m2
04:30 48.9 °F 44.0 °F 30.00 in Calm     83% 0.00 in 0 W/m2
04:36 49.0 °F 43.4 °F 30.00 in Calm     81% 0.00 in 0 W/m2
04:42 49.1 °F 43.5 °F 30.00 in Calm     81% 0.00 in 0 W/m2
04:48 49.1 °F 43.2 °F 30.00 in Calm   1.0 mph 80% 0.00 in 0 W/m2
04:54 49.1 °F 42.9 °F 30.01 in Calm   1.0 mph 79% 0.00 in 0 W/m2
05:00 49.1 °F 42.9 °F 30.00 in Calm     79% 0.00 in 0 W/m2
05:06 49.0 °F 42.4 °F 30.01 in Calm   1.0 mph 78% 0.00 in 0 W/m2
05:12 49.0 °F 42.8 °F 30.01 in North 1.0 mph 1.0 mph 79% 0.00 in 0 W/m2
05:18 49.0 °F 42.8 °F 30.01 in Calm   1.0 mph 79% 0.00 in 0 W/m2
05:24 49.0 °F 42.8 °F 30.00 in Calm     79% 0.00 in 0 W/m2
05:30 48.9 °F 42.7 °F 30.01 in Calm     79% 0.00 in 0 W/m2
05:36 48.9 °F 43.0 °F 30.01 in Calm     80% 0.00 in 0 W/m2
05:42 48.9 °F 43.0 °F 30.02 in Calm     80% 0.00 in 0 W/m2
05:48 48.7 °F 42.8 °F 30.02 in Calm     80% 0.00 in 0 W/m2
05:54 48.7 °F 42.8 °F 30.01 in Calm     80% 0.00 in 0 W/m2
06:00 48.7 °F 42.8 °F 30.01 in Calm     80% 0.00 in 0 W/m2
06:06 48.7 °F 43.1 °F 30.02 in Calm   3.0 mph 81% 0.00 in 0 W/m2
06:12 48.6 °F 43.0 °F 30.02 in Calm     81% 0.00 in 0 W/m2
06:18 48.5 °F 42.6 °F 30.02 in Calm   1.0 mph 80% 0.00 in 0 W/m2
06:24 48.5 °F 42.6 °F 30.02 in Calm     80% 0.00 in 0 W/m2
06:30 48.4 °F 42.5 °F 30.02 in Calm     80% 0.00 in 0 W/m2
06:36 48.4 °F 42.8 °F 30.03 in Calm     81% 0.00 in 0 W/m2
06:42 48.4 °F 42.8 °F 30.03 in Calm     81% 0.00 in 0 W/m2
06:48 48.4 °F 42.8 °F 30.02 in Calm     81% 0.00 in 0 W/m2
06:54 48.3 °F 42.7 °F 30.02 in Calm     81% 0.00 in 0 W/m2
07:00 48.4 °F 42.8 °F 30.02 in Calm     81% 0.00 in 0 W/m2
07:06 48.3 °F 42.7 °F 30.02 in Calm     81% 0.00 in 5 W/m2
07:12 48.3 °F 43.1 °F 30.02 in Calm     82% 0.00 in 7 W/m2
07:18 48.3 °F 42.7 °F 30.02 in Calm     81% 0.00 in 11 W/m2
07:24 48.3 °F 42.7 °F 30.03 in Calm     81% 0.00 in 12 W/m2
07:30 48.3 °F 42.7 °F 30.03 in Calm     81% 0.00 in 18 W/m2
07:36 48.3 °F 42.7 °F 30.03 in Calm     81% 0.00 in 19 W/m2
07:42 48.4 °F 42.8 °F 30.03 in Calm     81% 0.00 in 25 W/m2
07:48 48.5 °F 42.9 °F 30.03 in Calm     81% 0.00 in 30 W/m2
07:54 48.8 °F 43.5 °F 30.03 in Calm     82% 0.00 in 35 W/m2
08:00 48.9 °F 43.3 °F 30.04 in Calm     81% 0.00 in 42 W/m2
08:06 49.1 °F 43.5 °F 30.04 in Calm     81% 0.00 in 51 W/m2
08:12 49.2 °F 43.3 °F 30.04 in Calm   1.0 mph 80% 0.00 in 53 W/m2
08:18 49.4 °F 43.5 °F 30.04 in Calm   1.0 mph 80% 0.00 in 63 W/m2
08:24 49.5 °F 43.6 °F 30.05 in Calm     80% 0.00 in 72 W/m2
08:30 49.7 °F 44.1 °F 30.05 in Calm     81% 0.00 in 79 W/m2
08:36 49.8 °F 43.9 °F 30.05 in North 1.0 mph 1.0 mph 80% 0.00 in 90 W/m2
08:42 49.9 °F 44.3 °F 30.05 in Calm   1.0 mph 81% 0.00 in 102 W/m2
08:48 50.1 °F 44.2 °F 30.05 in Calm   3.0 mph 80% 0.00 in 127 W/m2
08:54 50.4 °F 44.8 °F 30.05 in North 1.0 mph 3.0 mph 81% 0.00 in 139 W/m2
09:00 50.8 °F 44.9 °F 30.05 in North 1.0 mph 3.0 mph 80% 0.00 in 155 W/m2
09:06 51.1 °F 44.8 °F 30.05 in North 1.0 mph 3.0 mph 79% 0.00 in 165 W/m2
09:12 51.6 °F 45.3 °F 30.05 in North 1.0 mph 1.0 mph 79% 0.00 in 185 W/m2
09:18 51.9 °F 44.9 °F 30.05 in North 1.0 mph 3.0 mph 77% 0.00 in 172 W/m2
09:24 52.3 °F 45.0 °F 30.05 in North 1.0 mph 1.0 mph 76% 0.00 in 218 W/m2
09:30 53.0 °F 44.6 °F 30.05 in Calm     73% 0.00 in 225 W/m2
09:36 53.5 °F 45.4 °F 30.05 in Calm     74% 0.00 in 255 W/m2
09:42 53.7 °F 44.1 °F 30.05 in Calm     70% 0.00 in 243 W/m2
09:48 53.5 °F 43.6 °F 30.05 in Calm     69% 0.00 in 232 W/m2
09:54 54.9 °F 45.3 °F 30.05 in Calm     70% 0.00 in 364 W/m2
10:00 56.1 °F 45.3 °F 30.05 in Calm     67% 0.00 in 297 W/m2
10:06 55.5 °F 44.3 °F 30.05 in Calm     66% 0.00 in 306 W/m2
10:12 56.3 °F 43.9 °F 30.05 in Calm   2.0 mph 63% 0.00 in 496 W/m2
10:18 55.7 °F 42.5 °F 30.05 in Calm   2.0 mph 61% 0.00 in 311 W/m2
10:24 56.4 °F 45.2 °F 30.05 in Calm   1.0 mph 66% 0.00 in 311 W/m2
10:30 57.2 °F 44.7 °F 30.05 in Calm     63% 0.00 in 272 W/m2
10:36 57.0 °F 44.9 °F 30.05 in Calm   1.0 mph 64% 0.00 in 682 W/m2
10:42 58.7 °F 44.4 °F 30.05 in Calm   3.0 mph 59% 0.00 in 633 W/m2
10:48 58.2 °F 44.4 °F 30.05 in Calm   3.0 mph 60% 0.00 in 626 W/m2
10:54 57.7 °F 44.3 °F 30.04 in Calm     61% 0.00 in 642 W/m2
11:00 59.1 °F 44.8 °F 30.04 in West 1.0 mph 1.0 mph 59% 0.00 in 647 W/m2
11:06 60.0 °F 45.6 °F 30.03 in West 1.0 mph 3.0 mph 59% 0.00 in 670 W/m2
11:12 59.9 °F 43.7 °F 30.03 in North 1.0 mph 2.0 mph 55% 0.00 in 728 W/m2
11:18 59.5 °F 42.8 °F 30.03 in ENE 2.0 mph 2.0 mph 54% 0.00 in 793 W/m2
11:24 59.6 °F 46.1 °F 30.03 in NNW 1.0 mph 2.0 mph 61% 0.00 in 216 W/m2
11:30 58.9 °F 43.7 °F 30.03 in NNW 1.0 mph 1.0 mph 57% 0.00 in 165 W/m2
11:36 57.8 °F 42.2 °F 30.03 in Calm   1.0 mph 56% 0.00 in 148 W/m2
11:42 58.8 °F 44.5 °F 30.03 in Calm   1.0 mph 59% 0.00 in 928 W/m2
11:48 58.8 °F 42.2 °F 30.03 in SSE 1.0 mph 4.0 mph 54% 0.00 in 294 W/m2
11:54 58.8 °F 43.6 °F 30.02 in North 2.0 mph 2.0 mph 57% 0.00 in 267 W/m2
12:00 58.7 °F 42.6 °F 30.02 in WNW 1.0 mph 1.0 mph 55% 0.00 in 225 W/m2
12:06 58.2 °F 43.9 °F 30.02 in WNW 1.0 mph 1.0 mph 59% 0.00 in 200 W/m2
12:12 57.7 °F 41.6 °F 30.02 in NNW 1.0 mph 3.0 mph 55% 0.00 in 163 W/m2
12:18 57.2 °F 42.1 °F 30.02 in NNW 1.0 mph 3.0 mph 57% 0.00 in 169 W/m2
12:24 57.5 °F 42.8 °F 30.02 in Calm   1.0 mph 58% 0.00 in 181 W/m2
12:30 58.1 °F 42.9 °F 30.02 in Calm     57% 0.00 in 171 W/m2
12:36 58.7 °F 43.0 °F 30.02 in WSW 1.0 mph 3.0 mph 56% 0.00 in 889 W/m2
12:42 60.4 °F 42.7 °F 30.02 in South 2.0 mph 2.0 mph 52% 0.00 in 962 W/m2
12:48 60.4 °F 41.7 °F 30.01 in SSE 3.0 mph 3.0 mph 50% 0.00 in 960 W/m2
12:54 60.6 °F 42.4 °F 30.00 in South 3.0 mph 3.0 mph 51% 0.00 in 889 W/m2
13:00 61.4 °F 42.6 °F 30.00 in SSW 2.0 mph 3.0 mph 50% 0.00 in 888 W/m2
13:06 60.2 °F 43.5 °F 30.00 in SSW 3.0 mph 5.0 mph 54% 0.00 in 807 W/m2
13:12 61.3 °F 44.5 °F 30.00 in WSW 2.0 mph 2.0 mph 54% 0.00 in 810 W/m2
13:18 61.6 °F 44.8 °F 30.00 in SW 2.0 mph 5.0 mph 54% 0.00 in 819 W/m2
13:24 60.8 °F 43.1 °F 30.00 in WNW 2.0 mph 2.0 mph 52% 0.00 in 155 W/m2
13:30 59.8 °F 42.1 °F 29.99 in SW 1.0 mph 1.0 mph 52% 0.00 in 149 W/m2
13:36 60.1 °F 42.4 °F 29.99 in South 1.0 mph 4.0 mph 52% 0.00 in 763 W/m2
13:42 59.7 °F 44.4 °F 29.99 in South 1.0 mph 1.0 mph 57% 0.00 in 178 W/m2
13:48 61.9 °F 43.6 °F 29.99 in SSW 1.0 mph 5.0 mph 51% 0.00 in 229 W/m2
13:54 60.9 °F 42.6 °F 29.99 in SSW 2.0 mph 4.0 mph 51% 0.00 in 707 W/m2
14:00 61.3 °F 42.0 °F 29.99 in NNW 2.0 mph 2.0 mph 49% 0.00 in 719 W/m2
14:06 61.4 °F 43.6 °F 29.98 in West 2.0 mph 2.0 mph 52% 0.00 in 701 W/m2
14:12 62.2 °F 42.8 °F 29.97 in South 2.0 mph 4.0 mph 49% 0.00 in 712 W/m2
14:18 62.2 °F 42.8 °F 29.97 in SSE 3.0 mph 6.0 mph 49% 0.00 in 722 W/m2
14:24 61.9 °F 44.1 °F 29.97 in ESE 2.0 mph 3.0 mph 52% 0.00 in 744 W/m2
14:30 62.2 °F 42.8 °F 29.97 in South 1.0 mph 2.0 mph 49% 0.00 in 369 W/m2
14:36 62.2 °F 41.7 °F 29.97 in WSW 2.0 mph 5.0 mph 47% 0.00 in 320 W/m2
14:42 61.4 °F 42.1 °F 29.97 in WSW 3.0 mph 3.0 mph 49% 0.00 in 251 W/m2
14:48 61.3 °F 41.4 °F 29.97 in SW 1.0 mph 3.0 mph 48% 0.00 in 171 W/m2
14:54 61.1 °F 41.8 °F 29.97 in SW 1.0 mph 2.0 mph 49% 0.00 in 169 W/m2
15:00 61.0 °F 42.2 °F 29.97 in SSW 1.0 mph 3.0 mph 50% 0.00 in 148 W/m2
15:06 60.9 °F 42.1 °F 29.96 in SSW 1.0 mph 3.0 mph 50% 0.00 in 132 W/m2
15:12 60.8 °F 42.5 °F 29.96 in SSW 1.0 mph 1.0 mph 51% 0.00 in 127 W/m2
15:18 60.8 °F 42.5 °F 29.96 in Calm   1.0 mph 51% 0.00 in 114 W/m2
15:24 60.7 °F 42.5 °F 29.96 in Calm     51% 0.00 in 111 W/m2
15:30 60.6 °F 41.8 °F 29.96 in Calm     50% 0.00 in 84 W/m2
15:36 60.6 °F 43.4 °F 29.96 in SW 1.0 mph 3.0 mph 53% 0.00 in 139 W/m2
15:42 60.7 °F 43.0 °F 29.96 in South 1.0 mph 1.0 mph 52% 0.00 in 163 W/m2
15:48 60.9 °F 43.1 °F 29.95 in SSW 1.0 mph 4.0 mph 52% 0.00 in 169 W/m2
15:54 60.9 °F 42.6 °F 29.95 in SW 1.0 mph 3.0 mph 51% 0.00 in 135 W/m2
16:00 60.9 °F 43.6 °F 29.95 in SW 1.0 mph 3.0 mph 53% 0.00 in 86 W/m2
16:06 60.4 °F 43.7 °F 29.95 in SE 1.0 mph 3.0 mph 54% 0.00 in 49 W/m2
16:12 59.9 °F 44.2 °F 29.95 in SE 1.0 mph 2.0 mph 56% 0.00 in 44 W/m2
16:18 59.8 °F 44.5 °F 29.95 in Calm   2.0 mph 57% 0.00 in 49 W/m2
16:20 59.7 °F 44.4 °F 29.95 in Calm   2.0 mph 57% 0.00 in 42 W/m2
16:26 59.4 °F 45.5 °F 29.95 in SW 1.0 mph 2.0 mph 60% 0.00 in 56 W/m2
16:32 59.0 °F 46.8 °F 29.95 in SW 1.0 mph 1.0 mph 64% 0.00 in 60 W/m2
16:38 58.7 °F 47.0 °F 29.94 in Calm   1.0 mph 65% 0.00 in 60 W/m2
16:44 58.2 °F 50.7 °F 29.94 in Calm     76% 0.00 in 67 W/m2
16:50 56.9 °F 50.8 °F 29.94 in Calm     80% 0.00 in 47 W/m2
16:56 56.2 °F 51.1 °F 29.94 in Calm     83% 0.00 in 39 W/m2
17:02 55.7 °F 50.9 °F 29.94 in Calm     84% 0.00 in 30 W/m2
17:08 55.6 °F 51.2 °F 29.94 in Calm     85% 0.00 in 18 W/m2
17:14 55.3 °F 51.2 °F 29.94 in Calm   1.0 mph 86% 0.00 in 16 W/m2
17:20 55.0 °F 51.2 °F 29.94 in Calm     87% 0.00 in 18 W/m2
17:26 54.8 °F 51.0 °F 29.94 in Calm     87% 0.00 in 14 W/m2
17:32 54.5 °F 50.7 °F 29.94 in Calm     87% 0.00 in 11 W/m2
17:38 54.2 °F 50.7 °F 29.94 in Calm     88% 0.00 in 9 W/m2
17:44 54.1 °F 50.6 °F 29.94 in Calm     88% 0.00 in 11 W/m2
17:50 54.1 °F 50.9 °F 29.93 in Calm     89% 0.00 in 18 W/m2
17:56 54.0 °F 50.8 °F 29.93 in Calm     89% 0.00 in 16 W/m2
18:02 54.1 °F 50.9 °F 29.93 in Calm     89% 0.00 in 9 W/m2
18:08 54.1 °F 50.6 °F 29.93 in Calm   1.0 mph 88% 0.00 in 7 W/m2
18:14 54.1 °F 50.3 °F 29.93 in Calm     87% 0.00 in 5 W/m2
18:20 54.1 °F 50.0 °F 29.93 in Calm     86% 0.00 in 7 W/m2
18:26 54.3 °F 50.2 °F 29.93 in Calm     86% 0.00 in 0 W/m2
18:32 54.2 °F 50.1 °F 29.93 in Calm   1.0 mph 86% 0.00 in 0 W/m2
18:38 54.2 °F 50.1 °F 29.92 in Calm   1.0 mph 86% 0.00 in 0 W/m2
18:44 53.9 °F 49.8 °F 29.92 in Calm     86% 0.00 in 0 W/m2
18:50 53.8 °F 50.0 °F 29.92 in Calm     87% 0.00 in 0 W/m2
18:56 53.6 °F 49.8 °F 29.92 in Calm     87% 0.00 in 0 W/m2
19:02 53.4 °F 49.6 °F 29.92 in Calm     87% 0.00 in 0 W/m2
19:08 53.4 °F 49.9 °F 29.92 in Calm   2.0 mph 88% 0.00 in 0 W/m2
19:14 53.3 °F 49.5 °F 29.92 in Calm   1.0 mph 87% 0.00 in 0 W/m2
19:20 53.3 °F 49.5 °F 29.93 in Calm     87% 0.00 in 0 W/m2
19:26 53.3 °F 49.5 °F 29.93 in Calm     87% 0.08 in 0 W/m2
19:32 53.2 °F 49.4 °F 29.93 in Calm     87% 0.06 in 0 W/m2
19:38 53.1 °F 49.6 °F 29.93 in Calm   1.0 mph 88% 0.04 in 0 W/m2
19:44 53.0 °F 49.8 °F 29.92 in Calm     89% 0.00 in 0 W/m2
19:50 52.7 °F 49.2 °F 29.93 in Calm     88% 0.00 in 0 W/m2
19:56 52.5 °F 48.7 °F 29.93 in SSE 1.0 mph 3.0 mph 87% 0.00 in 0 W/m2
20:02 52.5 °F 48.4 °F 29.93 in SSE 1.0 mph 1.0 mph 86% 0.00 in 0 W/m2
20:08 52.4 °F 48.0 °F 29.93 in Calm   1.0 mph 85% 0.00 in 0 W/m2
20:14 52.2 °F 48.1 °F 29.92 in ENE 1.0 mph 1.0 mph 86% 0.00 in 0 W/m2
20:20 51.9 °F 47.8 °F 29.93 in ENE 1.0 mph 1.0 mph 86% 0.00 in 0 W/m2
20:26 51.6 °F 47.9 °F 29.92 in ENE 1.0 mph 2.0 mph 87% 0.00 in 0 W/m2
20:32 51.1 °F 47.4 °F 29.92 in East 1.0 mph 3.0 mph 87% 0.00 in 0 W/m2
20:38 51.0 °F 47.6 °F 29.93 in ENE 1.0 mph 3.0 mph 88% 0.00 in 0 W/m2
20:44 50.9 °F 47.5 °F 29.93 in ENE 1.0 mph 3.0 mph 88% 0.00 in 0 W/m2
20:50 51.0 °F 47.6 °F 29.93 in ENE 1.0 mph 1.0 mph 88% 0.00 in 0 W/m2
20:56 51.1 °F 48.0 °F 29.93 in ENE 1.0 mph 1.0 mph 89% 0.00 in 0 W/m2
21:02 51.2 °F 48.1 °F 29.93 in Calm     89% 0.00 in 0 W/m2
21:08 51.2 °F 48.1 °F 29.93 in Calm   1.0 mph 89% 0.20 in 0 W/m2
21:14 51.2 °F 48.4 °F 29.92 in ENE 2.0 mph 3.0 mph 90% 0.09 in 0 W/m2
21:20 51.1 °F 48.3 °F 29.92 in East 2.0 mph 3.0 mph 90% 0.05 in 0 W/m2
21:26 51.1 °F 48.3 °F 29.92 in SE 2.0 mph 3.0 mph 90% 0.00 in 0 W/m2
21:32 51.2 °F 48.4 °F 29.92 in SE 1.0 mph 1.0 mph 90% 0.00 in 0 W/m2
21:38 51.3 °F 48.5 °F 29.92 in Calm   1.0 mph 90% 0.00 in 0 W/m2
21:44 51.4 °F 48.6 °F 29.92 in Calm     90% 0.00 in 0 W/m2
21:50 51.4 °F 48.9 °F 29.92 in Calm     91% 0.00 in 0 W/m2
21:56 51.5 °F 49.0 °F 29.92 in ENE 1.0 mph 1.0 mph 91% 0.26 in 0 W/m2
22:02 51.3 °F 48.8 °F 29.92 in ENE 1.0 mph 1.0 mph 91% 0.10 in 0 W/m2
22:08 51.2 °F 48.7 °F 29.92 in Calm   1.0 mph 91% 0.05 in 0 W/m2
22:14 51.2 °F 48.7 °F 29.92 in Calm   2.0 mph 91% 0.00 in 0 W/m2
22:20 51.3 °F 49.1 °F 29.92 in Calm     92% 0.00 in 0 W/m2
22:26 51.2 °F 49.0 °F 29.93 in Calm   2.0 mph 92% 0.00 in 0 W/m2
22:32 51.1 °F 48.9 °F 29.92 in East 1.0 mph 1.0 mph 92% 0.00 in 0 W/m2
22:38 51.1 °F 48.9 °F 29.93 in Calm   1.0 mph 92% 0.00 in 0 W/m2
22:44 51.1 °F 48.9 °F 29.93 in Calm     92% 0.00 in 0 W/m2
22:50 51.0 °F 48.8 °F 29.93 in Calm     92% 0.00 in 0 W/m2
22:56 51.0 °F 48.8 °F 29.93 in Calm     92% 0.00 in 0 W/m2
23:02 51.1 °F 48.9 °F 29.93 in Calm     92% 0.00 in 0 W/m2
23:08 51.2 °F 49.0 °F 29.93 in Calm     92% 0.00 in 0 W/m2
23:14 51.3 °F 49.1 °F 29.93 in Calm     92% 0.00 in 0 W/m2
23:20 51.3 °F 49.1 °F 29.93 in Calm     92% 0.00 in 0 W/m2
23:26 51.4 °F 49.2 °F 29.93 in Calm     92% 0.00 in 0 W/m2
23:32 51.5 °F 49.5 °F 29.93 in Calm     93% 0.00 in 0 W/m2
23:38 51.5 °F 49.5 °F 29.94 in Calm     93% 0.00 in 0 W/m2
23:44 51.6 °F 49.6 °F 29.94 in East 1.0 mph 2.0 mph 93% 0.00 in 0 W/m2
23:50 51.5 °F 49.5 °F 29.94 in East 1.0 mph 1.0 mph 93% 0.00 in 0 W/m2
23:56 51.4 °F 49.4 °F 29.94 in Calm   1.0 mph 93% 0.00 in 0 W/m2
Country Meadow, Clay, NY, USA
Compliments of Weather Underground - 2 mb